Location: Thompson
(55.7500°N, 97.8670°W)
Time: 21:03:31
(UTC-05:00)

Amateur Radio Satellites - All Passes

Search period start: 16 October 2017 20:33
Search period end: 17 October 2017 20:33
Location: Thompson, 55.7500°N, 97.8670°W

Satellite Date Start Highest point End Downlink Frequencies (MHz)
Time Altitude Azimuth
STRAND 1 16 Oct 20:35:09 20:39:57 37° 96° (E) 20:44:42 437.568
PCSat 16 Oct 20:36:33 20:39:11 14° 256° (WSW) 20:41:50 145.827
ZACube-1 16 Oct 20:45:02 20:49:39 89° 261° (W) 20:54:16 437.345
AAUSAT CUBESAT 2 16 Oct 20:47:58 20:52:00 57° 259° (W) 20:56:04 437.432
YUBILEINY 16 Oct 20:51:53 21:00:28 53° 67° (ENE) 21:09:02 435.215
STARS 16 Oct 20:57:57 21:01:40 26° 302° (WNW) 21:05:22 437.465
UWE-3 16 Oct 20:58:06 21:02:34 45° 262° (W) 21:07:05 435.000/436.395/437.385
BEESAT 2 16 Oct 21:17:48 21:21:37 36° 26° (NNE) 21:25:23 435.950
DELFI C3 16 Oct 21:20:31 21:24:08 37° 66° (ENE) 21:27:46 145.870
Oscar 11 16 Oct 21:29:56 21:34:12 54° 260° (W) 21:38:29 .
XW-2A 16 Oct 21:31:35 21:33:30 14° 271° (W) 21:35:24 145.665 - 145.685
Max Valier Satellite 16 Oct 21:33:18 21:36:46 36° 66° (ENE) 21:40:14 145.860
EO-88 16 Oct 21:33:32 21:36:43 28° 63° (ENE) 21:39:54 145.990 - 145.960
HO-68 16 Oct 21:36:09 21:41:07 20° 276° (W) 21:46:08 435.675
BEESAT 3 16 Oct 21:44:52 21:48:54 87° 223° (SW) 21:52:51 437.485
CUBEBUG 2 16 Oct 21:50:34 21:52:46 13° 278° (W) 21:55:00 437.445
FO-29 16 Oct 21:52:51 21:58:52 39° 95° (E) 22:05:33 435.910
AO-85 16 Oct 21:54:04 21:58:14 49° 32° (NNE) 22:02:44 145.980
AO-73 16 Oct 22:03:06 22:06:49 24° 269° (W) 22:10:34 145.935
STRAND 1 16 Oct 22:14:20 22:19:17 47° 296° (WNW) 22:24:12 437.568
ZACube-1 16 Oct 22:23:47 22:26:36 16° 275° (W) 22:29:25 437.345
LO-87 16 Oct 22:36:54 22:39:48 23° 61° (ENE) 22:42:44 145.935 - 145.965
O/OREOS (USA 219) 16 Oct 22:39:36 22:44:00 49° 114° (ESE) 22:48:28 437.305
YUBILEINY 16 Oct 22:49:00 22:57:22 52° 271° (W) 23:05:46 435.215
SPROUT 16 Oct 22:51:08 22:52:37 12° 48° (NE) 22:54:07 437.525
ESTCUBE 1 16 Oct 22:53:25 22:57:21 31° 61° (ENE) 23:01:19 437.505/2401.250
DELFI C3 16 Oct 22:55:31 22:58:58 29° 265° (W) 23:02:27 145.870
BEESAT 2 16 Oct 22:55:33 22:59:35 62° 228° (SW) 23:03:34 435.950
VELOX 1 16 Oct 23:03:59 23:05:43 12° 47° (NE) 23:07:28 145.980
EO-88 16 Oct 23:06:56 23:10:18 34° 263° (W) 23:13:42 145.990 - 145.960
UNISAT 6 16 Oct 23:07:22 23:11:51 42° 97° (E) 23:16:13 437.425
Max Valier Satellite 16 Oct 23:07:24 23:10:40 28° 266° (W) 23:13:57 145.860
BEESAT 3 16 Oct 23:23:18 23:25:54 17° 244° (WSW) 23:28:29 437.485
TIGRISAT 16 Oct 23:23:18 23:27:55 53° 100° (E) 23:32:26 435.000
AO-85 16 Oct 23:34:30 23:38:42 45° 232° (SW) 23:43:12 145.980
FO-29 16 Oct 23:37:59 23:44:12 59° 294° (WNW) 23:51:12 435.910
AIST 2D 16 Oct 23:49:29 23:51:25 14° 88° (E) 23:53:20 435.315
PRISM 16 Oct 23:53:00 23:57:00 49° 101° (E) 00:01:00 437.425
STRAND 1 16 Oct 23:55:05 23:57:20 13° 318° (NW) 23:59:36 437.568
LO-87 17 Oct 00:09:34 00:13:01 43° 261° (W) 00:16:31 145.935 - 145.965
RS-15 17 Oct 00:17:50 00:24:33 17° 92° (E) 00:31:13 29.354- 29.394
O/OREOS (USA 219) 17 Oct 00:19:22 00:23:36 35° 316° (NW) 00:27:53 437.305
50 SAT 17 Oct 00:20:10 00:21:28 12° 55° (NE) 00:22:47 437.505
DX 1 17 Oct 00:22:00 00:24:48 17° 52° (NE) 00:27:37 434.975-435.025
SPROUT 17 Oct 00:23:28 00:27:38 53° 68° (ENE) 00:31:51 437.525
ESTCUBE 1 17 Oct 00:29:42 00:34:02 47° 261° (W) 00:38:24 437.505/2401.250
BEESAT 2 17 Oct 00:35:02 00:36:32 12° 248° (WSW) 00:38:02 435.950
VELOX 1 17 Oct 00:37:00 00:41:17 54° 68° (ENE) 00:45:36 145.980
UNISAT 6 17 Oct 00:44:13 00:48:30 36° 298° (WNW) 00:52:42 437.425
YUBILEINY 17 Oct 00:47:51 00:52:02 14° 296° (WNW) 00:56:12 435.215
UKube-1 17 Oct 00:54:04 00:57:17 21° 55° (NE) 01:00:31 .
EO-79 17 Oct 00:54:45 00:58:29 28° 94° (E) 01:02:10 145.935-145.965
POLYITAN 1 17 Oct 00:58:16 01:02:04 30° 94° (E) 01:05:50 437.675
TIGRISAT 17 Oct 01:00:20 01:04:24 30° 300° (WNW) 01:08:24 435.000
QB50P2 17 Oct 01:18:03 01:22:13 47° 99° (E) 01:26:21 145.880/145.840
AIST 2D 17 Oct 01:21:32 01:25:01 66° 288° (WNW) 01:28:27 435.315
FO-29 17 Oct 01:24:07 01:28:18 19° 315° (NW) 01:32:47 435.910
NANOSAT C BR1 17 Oct 01:25:31 01:29:40 46° 99° (E) 01:33:46 145.865
PRISM 17 Oct 01:28:38 01:32:05 26° 300° (WNW) 01:35:32 437.425
DUCHIFAT 1 17 Oct 01:38:34 01:42:47 54° 101° (E) 01:46:56 145.980
50 SAT 17 Oct 01:49:59 01:53:16 89° 288° (WNW) 01:56:35 437.505
DX 1 17 Oct 01:56:04 02:00:24 86° 70° (ENE) 02:04:47 434.975-435.025
SPROUT 17 Oct 02:00:19 02:03:49 24° 268° (W) 02:07:22 437.525
O/OREOS (USA 219) 17 Oct 02:01:56 02:04:23 14° 340° (NNW) 02:06:51 437.305
ITUPSAT 1 17 Oct 02:02:12 02:05:31 19° 51° (NE) 02:08:52 437.325
BUGSAT 1 17 Oct 02:02:26 02:06:13 30° 95° (E) 02:09:58 437.445
Gurwin Techsat 1B 17 Oct 02:09:38 02:13:10 18° 86° (E) 02:16:40 435.225
Oscar 19 17 Oct 02:09:46 02:13:46 22° 89° (E) 02:17:45 437.125/150
MOZHAYETS 4 17 Oct 02:10:32 02:13:56 21° 55° (NE) 02:17:21
VELOX 1 17 Oct 02:14:26 02:18:02 25° 268° (W) 02:21:40 145.980
BEESAT 17 Oct 02:19:47 02:23:36 24° 55° (NE) 02:27:27 436.000
RS-15 17 Oct 02:22:17 02:33:59 53° 118° (ESE) 02:45:35 29.354- 29.394
UKube-1 17 Oct 02:28:36 02:32:54 72° 256° (WSW) 02:37:14 .
EO-79 17 Oct 02:30:19 02:34:25 46° 294° (WNW) 02:38:31 145.935-145.965
POLYITAN 1 17 Oct 02:33:55 02:38:00 43° 294° (WNW) 02:42:02 437.675
QB50P2 17 Oct 02:54:10 02:57:52 28° 299° (WNW) 03:01:31 145.880/145.840
AIST 2D 17 Oct 02:57:11 02:57:31 10° 307° (NW) 02:57:51 435.315
NANOSAT C BR1 17 Oct 03:01:32 03:05:14 29° 299° (WNW) 03:08:54 145.865
DUCHIFAT 1 17 Oct 03:14:40 03:18:12 25° 301° (WNW) 03:21:42 145.980
AO-7 17 Oct 03:18:18 03:23:07 16° 80° (E) 03:27:54 .
M-CUBED/EXP-1 PRIME 17 Oct 03:25:55 03:29:13 51° 108° (ESE) 03:32:41 437.505
DX 1 17 Oct 03:34:35 03:37:12 16° 272° (W) 03:39:51 434.975-435.025
BUGSAT 1 17 Oct 03:37:40 03:41:42 42° 295° (WNW) 03:45:41 437.445
ITUPSAT 1 17 Oct 03:37:54 03:42:43 83° 73° (ENE) 03:47:35 437.325
O/OREOS (USA 219) 17 Oct 03:44:36 03:45:53 11° 6° (N) 03:47:09 437.305
MOZHAYETS 4 17 Oct 03:45:56 03:50:35 83° 254° (WSW) 03:55:16
CUBESAT XI-V 17 Oct 03:47:15 03:51:24 34° 62° (ENE) 03:55:33 437.345
Oscar 19 17 Oct 03:48:31 03:53:39 75° 290° (WNW) 03:58:46 437.125/150
Gurwin Techsat 1B 17 Oct 03:48:34 03:53:57 84° 107° (ESE) 03:59:17 435.225
BEESAT 17 Oct 03:56:11 04:00:59 72° 256° (WSW) 04:05:48 436.000
KKS-1 17 Oct 04:06:03 04:09:23 21° 55° (NE) 04:12:44 437.445
UKube-1 17 Oct 04:08:10 04:09:44 12° 276° (W) 04:11:18 .
EO-79 17 Oct 04:08:42 04:09:13 10° 314° (NW) 04:09:43 145.935-145.965
ITAMSAT 1 17 Oct 04:13:02 04:16:59 21° 89° (E) 04:20:54 435.822/435.867
RS-15 17 Oct 04:33:46 04:46:12 77° 325° (NW) 04:58:23 29.354- 29.394
STARS 17 Oct 04:49:41 04:53:09 23° 56° (ENE) 04:56:40 437.465
M-CUBED/EXP-1 PRIME 17 Oct 05:00:54 05:03:28 21° 307° (NW) 05:06:07 437.505
AO-7 17 Oct 05:09:38 05:17:50 59° 104° (ESE) 05:26:00 .
ITUPSAT 1 17 Oct 05:17:48 05:21:10 19° 272° (W) 05:24:33 437.325
O/OREOS (USA 219) 17 Oct 05:23:48 05:27:10 19° 31° (NNE) 05:30:32 437.305
CUBESAT XI-V 17 Oct 05:24:16 05:28:43 44° 262° (W) 05:33:09 437.345
MOZHAYETS 4 17 Oct 05:25:53 05:28:30 15° 275° (W) 05:31:07
Oscar 19 17 Oct 05:28:47 05:32:14 19° 311° (NW) 05:35:41 437.125/150
Gurwin Techsat 1B 17 Oct 05:29:11 05:33:23 24° 307° (NW) 05:37:33 435.225
BEESAT 17 Oct 05:37:22 05:39:38 13° 276° (W) 05:41:56 436.000
KKS-1 17 Oct 05:41:04 05:45:30 75° 255° (WSW) 05:50:00 437.445
ITAMSAT 1 17 Oct 05:51:49 05:57:06 82° 288° (WNW) 06:02:20 435.822/435.867
NO-84 17 Oct 05:57:56 06:01:26 25° 143° (SE) 06:04:49 435.350 FM
STRAND 1 17 Oct 06:20:48 06:24:53 24° 54° (NE) 06:28:59 437.568
STARS 17 Oct 06:24:46 06:29:09 66° 257° (WSW) 06:33:35 437.465
DOVE 4 17 Oct 06:32:40 06:37:19 49° 99° (E) 06:42:12 437.250
XW-2C 17 Oct 06:33:20 06:35:12 13° 87° (E) 06:37:04 145.795 - 145.815
FO-29 17 Oct 06:34:02 06:35:33 11° 33° (NNE) 06:37:06 435.910
RS-15 17 Oct 06:48:23 07:00:31 56° 357° (N) 07:12:13 29.354- 29.394
AO-7 17 Oct 07:02:41 07:10:35 51° 307° (NW) 07:18:29 .
O/OREOS (USA 219) 17 Oct 07:02:52 07:07:29 65° 54° (NE) 07:12:04 437.305
HO-68 17 Oct 07:05:24 07:09:43 16° 81° (E) 07:14:01 435.675
LilacSat-2 17 Oct 07:17:40 07:21:12 35° 97° (E) 07:24:40 437.200
XW-2F 17 Oct 07:20:37 07:24:03 33° 96° (E) 07:27:27 145.980 - 146.000
KKS-1 17 Oct 07:20:53 07:22:52 13° 275° (W) 07:24:52 437.445
KAITUO 1B 17 Oct 07:25:26 07:28:46 30° 95° (E) 07:32:03 145.475/437.950
XW-2D 17 Oct 07:29:51 07:33:29 44° 99° (E) 07:37:05 145.860 - 145.880
ITAMSAT 1 17 Oct 07:32:06 07:35:54 21° 310° (NW) 07:39:40 435.822/435.867
CUTE 1.7 + AOD 2 17 Oct 07:33:25 07:35:56 15° 87° (E) 07:38:26 437.475
CUTE-I 17 Oct 07:33:46 07:38:52 42° 97° (E) 07:43:57 437.470
NO-84 17 Oct 07:34:16 07:38:25 62° 163° (SSE) 07:42:22 435.350 FM
XW-2B 17 Oct 07:43:07 07:46:51 58° 101° (E) 07:50:33 145.730 - 145.750
NUDT-PHONESAT 17 Oct 07:45:49 07:49:25 46° 99° (E) 07:52:57 437.300
SEEDS 17 Oct 07:48:07 07:50:19 14° 86° (E) 07:52:30 437.485
CUBEBUG 2 17 Oct 07:54:38 07:57:49 18° 86° (E) 08:00:56 437.445
STRAND 1 17 Oct 07:58:27 08:03:35 79° 254° (WSW) 08:08:48 437.568
STARS 17 Oct 08:05:14 08:06:23 11° 277° (W) 08:07:33 437.465
XW-2C 17 Oct 08:06:09 08:09:56 81° 286° (WNW) 08:13:41 145.795 - 145.815
DOVE 4 17 Oct 08:10:40 08:14:54 33° 298° (WNW) 08:19:21 437.250
YUBILEINY 17 Oct 08:13:55 08:16:25 12° 60° (ENE) 08:18:57 435.215
FO-29 17 Oct 08:14:13 08:19:01 36° 57° (ENE) 08:24:12 435.910
AAUSAT CUBESAT 2 17 Oct 08:23:17 08:25:37 15° 86° (E) 08:27:57 437.432
ZACube-1 17 Oct 08:27:36 08:29:22 12° 82° (E) 08:31:08 437.345
SO-50 17 Oct 08:33:40 08:37:14 24° 119° (ESE) 08:40:51 436.795
UNISAT 6 17 Oct 08:38:17 08:41:29 19° 53° (NE) 08:44:42 437.425
UWE-3 17 Oct 08:40:12 08:44:03 25° 91° (E) 08:47:48 435.000/436.395/437.385
O/OREOS (USA 219) 17 Oct 08:42:49 08:46:32 24° 255° (WSW) 08:50:13 437.305
XW-2A 17 Oct 08:44:06 08:46:54 23° 94° (E) 08:49:39 145.665 - 145.685
HO-68 17 Oct 08:51:48 08:58:59 63° 104° (ESE) 09:06:08 435.675
LilacSat-2 17 Oct 08:52:06 08:55:25 29° 296° (WNW) 08:58:42 437.200
TIGRISAT 17 Oct 08:53:39 08:57:13 22° 55° (NE) 09:00:48 435.000
XW-2F 17 Oct 08:54:50 08:58:08 30° 296° (WNW) 09:01:25 145.980 - 146.000
AO-7 17 Oct 08:55:46 09:01:41 22° 332° (NNW) 09:07:38 .
KAITUO 1B 17 Oct 08:59:26 09:02:46 32° 295° (WNW) 09:06:04 145.475/437.950
RS-15 17 Oct 09:02:44 09:15:02 70° 29° (NNE) 09:26:40 29.354- 29.394
XW-2D 17 Oct 09:04:24 09:07:28 24° 299° (WNW) 09:10:31 145.860 - 145.880
CUTE 1.7 + AOD 2 17 Oct 09:08:07 09:12:21 83° 286° (WNW) 09:16:34 437.475
Oscar 11 17 Oct 09:10:05 09:13:05 18° 88° (E) 09:16:02 .
NO-84 17 Oct 09:11:40 09:15:48 81° 181° (S) 09:19:38 435.350 FM
CUTE-I 17 Oct 09:13:55 09:18:59 44° 298° (WNW) 09:24:03 437.470
PRISM 17 Oct 09:15:41 09:18:20 17° 54° (NE) 09:20:57 437.425
XW-2B 17 Oct 09:17:57 09:20:43 20° 301° (WNW) 09:23:28 145.730 - 145.750
NUDT-PHONESAT 17 Oct 09:20:08 09:23:03 23° 299° (WNW) 09:25:58 437.300
SEEDS 17 Oct 09:22:27 09:26:39 90° 109° (ESE) 09:30:49 437.485
CUBEBUG 2 17 Oct 09:30:17 09:35:04 85° 289° (WNW) 09:39:43 437.445
STRAND 1 17 Oct 09:40:32 09:43:39 16° 275° (W) 09:46:46 437.568
PCSat 17 Oct 09:41:01 09:45:26 26° 112° (ESE) 09:49:51 145.827
XW-2C 17 Oct 09:41:41 09:43:32 13° 306° (NW) 09:45:21 145.795 - 145.815
AO-73 17 Oct 09:42:18 09:46:35 44° 98° (E) 09:50:45 145.935
AAUSAT CUBESAT 2 17 Oct 09:57:31 10:01:40 85° 286° (WNW) 10:05:47 437.432
FO-29 17 Oct 09:58:55 10:04:01 51° 261° (W) 10:09:35 435.910
ZACube-1 17 Oct 10:02:01 10:06:32 72° 104° (ESE) 10:10:54 437.345
YUBILEINY 17 Oct 10:02:44 10:10:45 44° 85° (E) 10:18:49 435.215
SO-50 17 Oct 10:12:46 10:17:16 81° 320° (NW) 10:21:50 436.795
UNISAT 6 17 Oct 10:12:53 10:17:33 85° 76° (ENE) 10:22:18 437.425
UWE-3 17 Oct 10:16:17 10:20:49 56° 292° (WNW) 10:25:14 435.000/436.395/437.385
XW-2A 17 Oct 10:16:35 10:19:42 35° 293° (WNW) 10:22:47 145.665 - 145.685
EO-79 17 Oct 10:21:37 10:23:04 12° 48° (NE) 10:24:32 145.935-145.965
DELFI C3 17 Oct 10:24:26 10:27:34 22° 92° (E) 10:30:41 145.870
POLYITAN 1 17 Oct 10:24:58 10:26:43 12° 48° (NE) 10:28:28 437.675
TIGRISAT 17 Oct 10:28:45 10:33:25 78° 255° (WSW) 10:38:10 435.000
EO-88 17 Oct 10:28:48 10:30:39 13° 87° (E) 10:32:29 145.990 - 145.960
Max Valier Satellite 17 Oct 10:29:45 10:32:22 18° 90° (E) 10:34:56 145.860
AIST 2D 17 Oct 10:30:33 10:33:02 18° 60° (ENE) 10:35:30 435.315
HO-68 17 Oct 10:39:52 10:46:32 42° 306° (NW) 10:53:10 435.675
QB50P2 17 Oct 10:43:36 10:46:26 18° 54° (NE) 10:49:17 145.880/145.840
CUTE 1.7 + AOD 2 17 Oct 10:45:04 10:47:35 16° 307° (NW) 10:50:06 437.475
Oscar 11 17 Oct 10:45:24 10:49:44 73° 288° (WNW) 10:54:01 .
AO-7 17 Oct 10:47:17 10:51:41 16° 359° (N) 10:56:03 .
PRISM 17 Oct 10:49:01 10:53:05 86° 254° (WSW) 10:57:11 437.425
NO-84 17 Oct 10:49:13 10:53:03 47° 205° (SSW) 10:56:34 435.350 FM
NANOSAT C BR1 17 Oct 10:50:40 10:53:25 17° 53° (NE) 10:56:11 145.865
CUTE-I 17 Oct 10:55:34 10:57:50 13° 320° (NW) 11:00:06 437.470
SEEDS 17 Oct 10:59:08 11:01:47 17° 306° (NW) 11:04:25 437.485
DUCHIFAT 1 17 Oct 11:03:09 11:06:09 19° 55° (NE) 11:09:10 145.980
CUBEBUG 2 17 Oct 11:07:48 11:11:03 19° 307° (NW) 11:14:15 437.445
RS-15 17 Oct 11:15:49 11:27:33 61° 238° (WSW) 11:38:41 29.354- 29.394
AO-73 17 Oct 11:18:46 11:22:43 31° 298° (WNW) 11:26:33 145.935
PCSat 17 Oct 11:22:54 11:28:20 82° 315° (NW) 11:33:49 145.827
BUGSAT 1 17 Oct 11:26:46 11:28:20 12° 48° (NE) 11:29:53 437.445
LO-87 17 Oct 11:30:59 11:31:32 10° 85° (E) 11:32:05 145.935 - 145.965
AAUSAT CUBESAT 2 17 Oct 11:34:05 11:36:32 16° 306° (NW) 11:38:59 437.432
ZACube-1 17 Oct 11:38:57 11:42:22 22° 304° (NW) 11:45:43 437.345
UNISAT 6 17 Oct 11:51:44 11:54:54 18° 274° (W) 11:58:05 437.425
EO-79 17 Oct 11:53:47 11:57:57 53° 68° (ENE) 12:02:09 145.935-145.965
SO-50 17 Oct 11:54:14 11:58:19 32° 343° (NNW) 12:02:27 436.795
UWE-3 17 Oct 11:54:17 11:56:21 13° 313° (NW) 11:58:23 435.000/436.395/437.385
Oscar 19 17 Oct 11:57:02 12:00:18 17° 47° (NE) 12:03:32 437.125/150
POLYITAN 1 17 Oct 11:57:26 12:01:39 57° 69° (ENE) 12:05:53 437.675
DELFI C3 17 Oct 11:58:44 12:02:35 51° 291° (WNW) 12:06:25 145.870
YUBILEINY 17 Oct 11:58:45 12:07:21 61° 290° (WNW) 12:16:02 435.215
Gurwin Techsat 1B 17 Oct 12:00:59 12:03:55 15° 44° (NE) 12:06:50 435.225
EO-88 17 Oct 12:01:08 12:04:48 77° 287° (WNW) 12:08:25 145.990 - 145.960
AIST 2D 17 Oct 12:02:26 12:05:54 56° 260° (W) 12:09:22 435.315
Max Valier Satellite 17 Oct 12:02:52 12:06:31 56° 290° (WNW) 12:10:08 145.860
TIGRISAT 17 Oct 12:08:23 12:10:54 14° 276° (W) 12:13:27 435.000
ESTCUBE 1 17 Oct 12:14:37 12:18:10 23° 91° (E) 12:21:43 437.505/2401.250
QB50P2 17 Oct 12:17:23 12:21:40 89° 256° (WSW) 12:26:01 145.880/145.840
Oscar 11 17 Oct 12:22:46 12:25:11 15° 308° (NW) 12:27:34 .
NANOSAT C BR1 17 Oct 12:24:17 12:28:34 88° 64° (ENE) 12:32:52 145.865
PRISM 17 Oct 12:27:09 12:29:01 13° 274° (W) 12:30:54 437.425
NO-84 17 Oct 12:27:31 12:29:40 15° 225° (SW) 12:31:43 435.350 FM
HO-68 17 Oct 12:28:22 12:32:34 17° 330° (NNW) 12:36:46 435.675
AO-7 17 Oct 12:35:48 12:41:37 22° 27° (NNE) 12:47:26 .
ISS 17 Oct 12:36:34 12:37:50 12° 145° (SE) 12:39:05 437.550
DUCHIFAT 1 17 Oct 12:37:04 12:41:20 80° 255° (WSW) 12:45:38 145.980
M-CUBED/EXP-1 PRIME 17 Oct 12:44:52 12:47:52 31° 58° (ENE) 12:50:49 437.505
BUGSAT 1 17 Oct 12:58:42 13:02:49 55° 68° (ENE) 13:06:59 437.445
LO-87 17 Oct 13:01:55 13:05:36 80° 104° (ESE) 13:09:15 145.935 - 145.965
Tancredo 1 17 Oct 13:03:49 13:05:20 21° 174° (S) 13:06:52 437.200
PCSat 17 Oct 13:07:34 13:12:27 33° 338° (NNW) 13:17:22 145.827
BEESAT 3 17 Oct 13:20:11 13:21:54 12° 113° (ESE) 13:23:38 437.485
RS-15 17 Oct 13:29:40 13:37:18 20° 265° (W) 13:44:43 29.354- 29.394
EO-79 17 Oct 13:30:30 13:34:00 24° 268° (W) 13:37:31 145.935-145.965
Oscar 19 17 Oct 13:33:40 13:38:47 66° 68° (ENE) 13:43:56 437.125/150
POLYITAN 1 17 Oct 13:34:21 13:37:46 23° 269° (W) 13:41:13 437.675
SO-50 17 Oct 13:35:55 13:39:52 28° 7° (N) 13:43:51 436.795
EO-88 17 Oct 13:36:20 13:37:49 12° 307° (NW) 13:39:19 145.990 - 145.960
SPROUT 17 Oct 13:37:12 13:41:12 36° 96° (E) 13:45:12 437.525
Gurwin Techsat 1B 17 Oct 13:37:41 13:42:51 55° 66° (ENE) 13:48:03 435.225
nSIGHT-1 17 Oct 13:46:42 13:49:26 26° 160° (SSE) 13:52:10 .
ESTCUBE 1 17 Oct 13:50:55 13:55:22 61° 291° (WNW) 13:59:46 437.505/2401.250
VELOX 1 17 Oct 13:55:34 13:59:44 38° 97° (E) 14:03:52 145.980
QB50P2 17 Oct 13:55:43 13:58:06 15° 274° (W) 14:00:32 145.880/145.840
YUBILEINY 17 Oct 13:59:57 14:06:21 22° 318° (NW) 14:12:49 435.215
ITAMSAT 1 17 Oct 14:01:21 14:04:36 17° 46° (NE) 14:07:53 435.822/435.867
NANOSAT C BR1 17 Oct 14:02:26 14:04:54 15° 274° (W) 14:07:23 145.865
UKube-1 17 Oct 14:09:44 14:11:18 12° 84° (E) 14:12:51 .
ISS 17 Oct 14:10:40 14:13:35 30° 164° (SSE) 14:16:31 437.550
DUCHIFAT 1 17 Oct 14:15:46 14:17:44 13° 275° (W) 14:19:41 145.980
HO-68 17 Oct 14:17:10 14:17:32 10° 356° (N) 14:17:53 435.675
M-CUBED/EXP-1 PRIME 17 Oct 14:19:27 14:22:22 27° 257° (WSW) 14:25:15 437.505
AO-7 17 Oct 14:24:50 14:32:39 49° 52° (NE) 14:40:29 .
BEESAT 2 17 Oct 14:31:17 14:34:09 19° 117° (ESE) 14:37:02 435.950
50 SAT 17 Oct 14:34:05 14:36:58 27° 96° (E) 14:39:50 437.505
BUGSAT 1 17 Oct 14:35:08 14:38:29 23° 269° (W) 14:41:54 437.445
Tancredo 1 17 Oct 14:35:22 14:36:42 17° 193° (SSW) 14:38:03 437.200
LO-87 17 Oct 14:36:22 14:38:32 15° 304° (NW) 14:40:41 145.935 - 145.965
PCSat 17 Oct 14:52:52 14:57:21 25° 3° (N) 15:01:50 145.827
BEESAT 3 17 Oct 14:54:44 14:58:44 65° 132° (SE) 15:02:45 437.485
DX 1 17 Oct 15:12:38 15:16:57 55° 101° (ESE) 15:21:15 434.975-435.025
SPROUT 17 Oct 15:13:09 15:17:07 36° 297° (WNW) 15:21:03 437.525
Oscar 19 17 Oct 15:14:18 15:18:34 25° 269° (W) 15:22:51 437.125/150
SO-50 17 Oct 15:16:43 15:21:11 51° 31° (NNE) 15:25:43 436.795
Gurwin Techsat 1B 17 Oct 15:18:20 15:23:05 32° 266° (W) 15:27:52 435.225
nSIGHT-1 17 Oct 15:22:16 15:25:17 39° 180° (S) 15:28:19 .
ESTCUBE 1 17 Oct 15:29:10 15:31:21 14° 312° (NW) 15:33:31 437.505/2401.250
VELOX 1 17 Oct 15:32:07 15:36:11 36° 297° (WNW) 15:40:14 145.980
ITUPSAT 1 17 Oct 15:32:21 15:34:28 13° 83° (E) 15:36:35 437.325
MOZHAYETS 4 17 Oct 15:34:28 15:37:03 15° 85° (E) 15:39:37
AO-85 17 Oct 15:35:40 15:39:22 42° 127° (SE) 15:43:14 145.980
ITAMSAT 1 17 Oct 15:38:04 15:43:13 65° 67° (ENE) 15:48:24 435.822/435.867
UKube-1 17 Oct 15:43:47 15:48:08 72° 105° (ESE) 15:52:27 .
ISS 17 Oct 15:46:35 15:49:41 39° 184° (S) 15:52:46 437.550
BEESAT 17 Oct 15:49:22 15:52:37 18° 88° (E) 15:55:50 436.000
HO-68 17 Oct 15:59:06 16:02:21 14° 23° (NNE) 16:05:36 435.675
YUBILEINY 17 Oct 16:05:45 16:07:49 11° 351° (N) 16:09:52 435.215
50 SAT 17 Oct 16:06:22 16:09:19 30° 295° (WNW) 16:12:15 437.505
BEESAT 2 17 Oct 16:07:20 16:11:24 87° 326° (NW) 16:15:30 435.950
DOVE 4 17 Oct 16:09:46 16:12:48 19° 54° (NE) 16:15:55 437.250
AO-7 17 Oct 16:17:08 16:25:20 62° 255° (WSW) 16:33:34 .
BEESAT 3 17 Oct 16:32:48 16:36:32 35° 334° (NNW) 16:40:18 437.485
PCSat 17 Oct 16:37:01 16:42:07 39° 28° (NNE) 16:47:12 145.827
XW-2D 17 Oct 16:46:42 16:47:59 11° 52° (NE) 16:49:17 145.860 - 145.880
DX 1 17 Oct 16:49:16 16:52:54 26° 302° (WNW) 16:56:31 434.975-435.025
SO-50 17 Oct 16:57:18 17:01:40 45° 232° (SW) 17:06:05 436.795
nSIGHT-1 17 Oct 16:58:24 17:01:09 26° 200° (SSW) 17:03:54 .
XW-2B 17 Oct 16:59:12 17:01:12 14° 54° (NE) 17:03:12 145.730 - 145.750
NUDT-PHONESAT 17 Oct 17:00:55 17:02:01 11° 52° (NE) 17:03:06 437.300
ITUPSAT 1 17 Oct 17:08:24 17:13:14 69° 104° (ESE) 17:18:01 437.325
MOZHAYETS 4 17 Oct 17:10:18 17:14:57 83° 105° (ESE) 17:19:32
CUBESAT XI-V 17 Oct 17:12:57 17:16:55 28° 93° (E) 17:20:52 437.345
AO-85 17 Oct 17:15:57 17:19:46 45° 330° (NNW) 17:23:49 145.980
ITAMSAT 1 17 Oct 17:18:46 17:23:07 26° 268° (W) 17:27:31 435.822/435.867
UKube-1 17 Oct 17:20:29 17:23:45 21° 305° (NW) 17:27:00 .
XW-2C 17 Oct 17:21:10 17:24:02 21° 60° (ENE) 17:26:55 145.795 - 145.815
ISS 17 Oct 17:23:01 17:25:42 23° 203° (SSW) 17:28:22 437.550
CUTE-I 17 Oct 17:24:20 17:28:54 30° 56° (NE) 17:33:30 437.470
KKS-1 17 Oct 17:25:45 17:27:52 13° 85° (E) 17:30:00 437.445
BEESAT 17 Oct 17:26:12 17:31:03 86° 286° (WNW) 17:35:50 436.000
HO-68 17 Oct 17:41:54 17:48:01 32° 48° (NE) 17:54:09 435.675
DOVE 4 17 Oct 17:45:47 17:49:59 78° 255° (WSW) 17:54:25 437.250
BEESAT 2 17 Oct 17:45:59 17:49:37 30° 340° (NNW) 17:53:14 435.950
YUBILEINY 17 Oct 18:05:33 18:09:58 14° 26° (NNE) 18:14:24 435.215
LilacSat-2 17 Oct 18:06:13 18:09:57 53° 70° (ENE) 18:13:41 437.200
STARS 17 Oct 18:07:33 18:09:59 14° 86° (E) 18:12:25 437.465
XW-2F 17 Oct 18:08:03 18:11:43 49° 69° (ENE) 18:15:23 145.980 - 146.000
UWE-3 17 Oct 18:10:59 18:12:40 12° 46° (NE) 18:14:21 435.000/436.395/437.385
BEESAT 3 17 Oct 18:11:48 18:15:02 22° 358° (N) 18:18:16 437.485
KAITUO 1B 17 Oct 18:12:00 18:15:34 43° 68° (ENE) 18:19:08 145.475/437.950
AO-7 17 Oct 18:14:51 18:19:57 17° 279° (W) 18:25:05 .
XW-2D 17 Oct 18:17:41 18:21:28 66° 72° (ENE) 18:25:15 145.860 - 145.880
PCSat 17 Oct 18:20:31 18:25:58 75° 231° (SW) 18:31:22 145.827
XW-2B 17 Oct 18:30:59 18:34:49 85° 75° (ENE) 18:38:38 145.730 - 145.750
NUDT-PHONESAT 17 Oct 18:31:29 18:35:11 65° 71° (ENE) 18:38:53 437.300
CUTE 1.7 + AOD 2 17 Oct 18:32:38 18:36:15 28° 62° (ENE) 18:39:53 437.475
SEEDS 17 Oct 18:46:16 18:49:43 25° 60° (ENE) 18:53:09 437.485
ITUPSAT 1 17 Oct 18:46:47 18:50:41 25° 305° (NW) 18:54:34 437.325
MOZHAYETS 4 17 Oct 18:48:15 18:51:36 20° 306° (NW) 18:54:55
CUBESAT XI-V 17 Oct 18:50:05 18:54:33 51° 293° (WNW) 18:59:00 437.345
XW-2C 17 Oct 18:54:11 18:57:56 56° 259° (W) 19:01:41 145.795 - 145.815
AO-85 17 Oct 18:57:39 19:01:03 25° 354° (N) 19:04:38 145.980
CUBEBUG 2 17 Oct 18:59:09 19:03:23 34° 62° (ENE) 19:07:40 437.445
KKS-1 17 Oct 19:00:43 19:05:13 77° 105° (ESE) 19:09:43 437.445
CUTE-I 17 Oct 19:03:22 19:08:39 64° 257° (WSW) 19:13:59 437.470
BEESAT 17 Oct 19:04:50 19:08:13 19° 309° (NW) 19:11:35 436.000
AO-73 17 Oct 19:10:14 19:13:15 18° 53° (NE) 19:16:16 145.935
AAUSAT CUBESAT 2 17 Oct 19:19:56 19:23:20 26° 61° (ENE) 19:26:45 437.432
XW-2A 17 Oct 19:21:56 19:24:55 28° 65° (ENE) 19:27:55 145.665 - 145.685
BEESAT 2 17 Oct 19:25:05 19:28:23 23° 3° (N) 19:31:39 435.950
DOVE 4 17 Oct 19:26:50 19:28:35 12° 278° (W) 19:30:20 437.250
HO-68 17 Oct 19:27:55 19:35:07 87° 250° (WSW) 19:42:23 435.675
ZACube-1 17 Oct 19:29:21 19:33:06 25° 59° (ENE) 19:36:50 437.345
LilacSat-2 17 Oct 19:41:37 19:44:31 20° 269° (W) 19:47:25 437.200
STARS 17 Oct 19:42:33 19:47:02 84° 107° (ESE) 19:51:29 437.465
XW-2F 17 Oct 19:43:07 19:46:04 21° 268° (W) 19:49:02 145.980 - 146.000
UWE-3 17 Oct 19:43:38 19:48:07 49° 67° (ENE) 19:52:39 435.000/436.395/437.385
KAITUO 1B 17 Oct 19:46:42 19:49:45 23° 267° (W) 19:52:47 145.475/437.950
BEESAT 3 17 Oct 19:50:01 19:53:36 30° 21° (NNE) 19:57:11 437.485
XW-2D 17 Oct 19:53:34 19:56:03 16° 271° (W) 19:58:32 145.860 - 145.880
STRAND 1 17 Oct 20:01:45 20:05:41 21° 89° (E) 20:09:36 437.568
YUBILEINY 17 Oct 20:02:19 20:10:16 36° 57° (ENE) 20:18:12 435.215
PCSat 17 Oct 20:04:59 20:08:33 18° 253° (WSW) 20:12:06 145.827
NUDT-PHONESAT 17 Oct 20:07:04 20:09:26 16° 271° (W) 20:11:50 437.300
XW-2B 17 Oct 20:07:43 20:09:33 13° 274° (W) 20:11:23 145.730 - 145.750
CUTE 1.7 + AOD 2 17 Oct 20:07:52 20:11:57 46° 262° (W) 20:16:02 437.475
Oscar 11 17 Oct 20:11:31 20:15:26 34° 63° (ENE) 20:19:23 .
SEEDS 17 Oct 20:21:05 20:25:11 51° 260° (W) 20:29:17 437.485
CUBESAT XI-V 17 Oct 20:29:14 20:30:58 12° 314° (NW) 20:32:42 437.345
